Regional Weather Roundup
Issued by NWS Charleston, WV

Home | Current Version | Previous Version | Text Only | Print | Product List | Glossary Off
Versions: 1 2 3 4 5 6 7 8 9 10 11 12 13 14 15 16 17 18 19 20 21 22 23 24 25 26 27 28 29 30 31 32 33 34 35 36 37 38 39 40 41 42 43 44 45 46 47 48 49 50

000
ASUS41 KRLX 101410
RWRRLX
West Virginia Regional Weather Roundup
National Weather Service Charleston WV
900 AM EST WED FEB 10 2016

Note: "fair" indicates few or no clouds below 12,000 feet with no
significant weather and/or obstructions to visibility.

WVZ003-101500-
Northern Panhandle of West Virginia

CITY           SKY/WX    TMP DP  RH WIND       PRES   REMARKS
WHEELING       FLURRIES  17  10  74 W14G25    29.82R WCI   3
$$

WVZ009-101500-
Northwest West Virginia

CITY           SKY/WX    TMP DP  RH WIND       PRES   REMARKS
PARKERSBURG    CLOUDY    16   8  71 W7        29.95R WCI   6
$$

WVZ006-101500-
Western West Virginia

CITY           SKY/WX    TMP DP  RH WIND       PRES   REMARKS
HUNTINGTON     MIX PCPN  18   9  68 W9        29.98R WCI   7
$$

WVZ015-101500-
West Central West Virginia

CITY           SKY/WX    TMP DP  RH WIND       PRES   REMARKS
CHARLESTON     LGT SNOW  18  10  71 W6        29.96R WCI  10
$$

WVZ022-031-101500-
North Central West Virginia

CITY           SKY/WX    TMP DP  RH WIND       PRES   REMARKS
CLARKSBURG     LGT SNOW  18  12  77 W14G22    29.86R FOG     WCI   4
MORGANTOWN     LGT SNOW  19  12  74 VRB6      29.83R VSB 1
$$

WVZ025-035-042-045-101500-
Southern West Virginia

CITY           SKY/WX    TMP DP  RH WIND       PRES   REMARKS
BECKLEY        LGT SNOW  13   7  77 W8        29.83R WCI   2
LOGAN          LGT SNOW  16  12  86 VRB7      29.92R WCI   6
BLUEFIELD      LGT SNOW  12   6  77 NW10G21   29.81R WCI  -1
LEWISBURG      FLURRIES  20  12  71 W8G16     29.82R
$$

WVZ047-101500-
Northern Mountains of West Virginia

CITY           SKY/WX    TMP DP  RH WIND       PRES   REMARKS
ELKINS         LGT SNOW  18  10  71 W12       29.80S VSB 1   WCI   5
$$

WVZ052-101500-
Eastern Panhandle of West Virginia

CITY           SKY/WX    TMP DP  RH WIND       PRES   REMARKS
MARTINSBURG    CLOUDY    28  15  58 W12G28    29.78R
PETERSBURG     CLOUDY    26  12  57 CALM      29.82R
$$



USA.gov is the U.S. government's official web portal to all federal, state and local government web resources and services.